Terminal Aerodrome Forecast
Issued by NWS Detroit/Pontiac, MI

Home | Current Version | Previous Version | Text Only | Print | Product List | Glossary On
Versions: 1 2 3 4 5 6 7 8 9 10 11 12 13 14 15 16 17 18 19 20 21 22 23 24 25 26 27 28
000
FTUS43 KDTX 231100
TAFDTW
TAF
KDTW 231120Z 2312/2418 32013KT P6SM BKN025 OVC035
     FM231400 33010KT P6SM FEW035
     FM231700 36010KT P6SM SCT250
     FM240100 VRB02KT P6SM BKN250=

USA.gov is the U.S. government's official web portal to all federal, state and local government web resources and services.